H1 CPF 2 NER 2025 9 3 9 246 01 glonass139 H2 1808601 9139 43687 2025 9 3 0 0 0 2025 9 6 23 45 0 900 1 1 0 0 0 1 H9 10 0 60921 0.00000 0 -18998374.853 -16948740.737 1691031.238 10 0 60921 900.00000 0 -18761403.115 -16600584.485 4860573.669 10 0 60921 1800.00000 0 -18181895.667 -16054981.984 7935807.132 10 0 60921 2700.00000 0 -17246343.959 -15366198.748 10857110.282 10 0 60921 3600.00000 0 -15953943.412 -14591592.592 13567880.668 10 0 60921 4500.00000 0 -14316836.442 -13789057.219 16015624.043 10 0 60921 5400.00000 0 -12359825.504 -13014462.584 18152961.817 10 0 60921 6300.00000 0 -10119567.953 -12319199.428 19938538.057 10 0 60921 7200.00000 0 -7643285.870 -11747930.582 21337809.534 10 0 60921 8100.00000 0 -4987043.867 -11336642.653 22323704.719 10 0 60921 9000.00000 0 -2213665.334 -11111079.039 22877140.065 10 0 60921 9900.00000 0 609627.622 -11085619.235 22987384.522 10 0 60921 10800.00000 0 3413754.290 -11262650.939 22652265.878 10 0 60921 11700.00000 0 6130391.920 -11632461.084 21878215.192 10 0 60921 12600.00000 0 8694561.977 -12173650.634 20680148.317 10 0 60921 13500.00000 0 11047080.481 -12854056.306 19081186.241 10 0 60921 14400.00000 0 13136772.131 -13632141.490 17112218.735 10 0 60921 15300.00000 0 14922357.318 -14458799.045 14811318.596 10 0 60921 16200.00000 0 16373934.232 -15279491.334 12223016.513 10 0 60921 17100.00000 0 17473994.746 -16036638.490 9397449.300 10 0 60921 18000.00000 0 18217931.702 -16672155.048 6389396.887 10 0 60921 18900.00000 0 18614016.327 -17130028.358 3257225.839 10 0 60921 19800.00000 0 18682846.512 -17358829.834 61759.361 10 0 60921 20700.00000 0 18456288.946 -17314052.400 -3134904.411 10 0 60921 21600.00000 0 17975959.521 -16960174.306 -6270602.654 10 0 60921 22500.00000 0 17291306.138 -16272360.666 -9284322.595 10 0 60921 23400.00000 0 16457375.074 -15237729.147 -12117396.310 10 0 60921 24300.00000 0 15532355.705 -13856124.500 -14714651.405 10 0 60921 25200.00000 0 14575007.981 -12140367.421 -17025494.271 10 0 60921 26100.00000 0 13642082.104 -10115965.513 -19004903.876 10 0 60921 27000.00000 0 12785840.232 -7820296.946 -20614316.051 10 0 60921 27900.00000 0 12051785.621 -5301299.813 -21822380.474 10 0 60921 28800.00000 0 11476695.718 -2615721.140 -22605575.249 10 0 60921 29700.00000 0 11087042.656 173001.882 -22948666.976 10 0 60921 30600.00000 0 10897867.970 2997140.401 -22845007.355 10 0 60921 31500.00000 0 10912159.000 5787252.287 -22296660.662 10 0 60921 32400.00000 0 11120752.994 8474833.107 -21314359.858 10 0 60921 33300.00000 0 11502772.496 10994929.399 -19917292.419 10 0 60921 34200.00000 0 12026573.026 13288605.593 -18132720.381 10 0 60921 35100.00000 0 12651162.307 15305162.239 -15995442.349 10 0 60921 36000.00000 0 13328030.328 17004013.680 -13547108.299 10 0 60921 36900.00000 0 14003312.127 18356147.759 -10835400.989 10 0 60921 37800.00000 0 14620191.135 19345107.809 -7913100.421 10 0 60921 38700.00000 0 15121440.832 19967457.377 -4837050.112 10 0 60921 39600.00000 0 15451996.695 20232709.952 -1667045.932 10 0 60921 40500.00000 0 15561449.337 20162728.514 1535330.299 10 0 60921 41400.00000 0 15406353.257 19790622.023 4707909.259 10 0 60921 42300.00000 0 14952253.615 19159186.979 7789140.898 10 0 60921 43200.00000 0 14175345.572 18318961.106 10719285.927 10 0 60921 44100.00000 0 13063696.360 17325972.173 13441568.991 10 0 60921 45000.00000 0 11617978.768 16239277.386 15903271.459 10 0 60921 45900.00000 0 9851685.204 15118397.013 18056743.351 10 0 60921 46800.00000 0 7790813.108 14020749.909 19860315.665 10 0 60921 47700.00000 0 5473034.451 12999198.008 21279096.522 10 0 60921 48600.00000 0 2946383.132 12099801.917 22285636.876 10 0 60921 49500.00000 0 267513.842 11359880.658 22860454.024 10 0 60921 50400.00000 0 -2500396.580 10806455.824 22992403.711 10 0 60921 51300.00000 0 -5290019.814 10455144.375 22678894.298 10 0 60921 52200.00000 0 -8032422.172 10309545.779 21925939.144 10 0 60921 53100.00000 0 -10659682.321 10361148.881 20748046.032 10 0 60921 54000.00000 0 -13107473.769 10589762.427 19167945.285 10 0 60921 54900.00000 0 -15317506.429 10964451.612 17216160.889 10 0 60921 55800.00000 0 -17239726.972 11444942.009 14930431.800 10 0 60921 56700.00000 0 -18834187.270 11983432.722 12354993.322 10 0 60921 57600.00000 0 -20072503.513 12526743.276 9539731.168 10 0 60921 58500.00000 0 -20938845.154 13018704.519 6539223.463 10 0 60921 59400.00000 0 -21430412.153 13402693.036 3411688.354 10 0 60921 60300.00000 0 -21557380.173 13624202.106 217857.063 10 0 60921 61200.00000 0 -21342315.619 13633340.094 -2980205.862 10 0 60921 62100.00000 0 -20819084.772 13387149.741 -6120312.011 10 0 60921 63000.00000 0 -20031302.739 12851648.984 -9141364.232 10 0 60921 63900.00000 0 -19030387.618 12003505.380 -11984552.999 10 0 60921 64800.00000 0 -17873302.157 10831271.538 -14594509.801 10 0 60921 65700.00000 0 -16620078.633 9336127.480 -16920394.191 10 0 60921 66600.00000 0 -15331231.962 7532096.727 -18916892.417 10 0 60921 67500.00000 0 -14065170.845 5445725.286 -20545107.422 10 0 60921 68400.00000 0 -12875716.718 3115235.449 -21773322.388 10 0 60921 69300.00000 0 -11809835.680 589188.688 -22577622.523 10 0 60921 70200.00000 0 -10905679.254 -2075287.315 -22942362.862 10 0 60921 71100.00000 0 -10191016.648 -4814634.083 -22860472.973 10 0 60921 72000.00000 0 -9682124.362 -7561271.391 -22333592.736 10 0 60921 72900.00000 0 -9383179.450 -10246179.744 -21372036.777 10 0 60921 73800.00000 0 -9286181.308 -12801548.758 -19994588.517 10 0 60921 74700.00000 0 -9371404.389 -15163381.180 -18228128.132 10 0 60921 75600.00000 0 -9608361.669 -17273944.232 -16107102.049 10 0 60921 76500.00000 0 -9957237.101 -19083966.436 -13672844.632 10 0 60921 77400.00000 0 -10370725.388 -20554488.816 -10972765.753 10 0 60921 78300.00000 0 -10796200.243 -21658294.027 -8059420.564 10 0 60921 79200.00000 0 -11178118.449 -22380854.805 -4989480.089 10 0 60921 80100.00000 0 -11460557.193 -22720763.409 -1822623.338 10 0 60921 81000.00000 0 -11589776.678 -22689625.658 1379626.935 10 0 60921 81900.00000 0 -11516699.170 -22311425.704 4555101.695 10 0 60921 82800.00000 0 -11199199.407 -21621389.860 7642192.553 10 0 60921 83700.00000 0 -10604109.532 -20664398.737 10581044.572 10 0 60921 84600.00000 0 -9708853.968 -19493015.615 13314711.827 10 0 60921 85500.00000 0 -8502645.407 -18165214.732 15790253.656 10 0 60922 0.00000 0 -6987191.727 -16741905.407 17959750.780 10 0 60922 900.00000 0 -5176883.127 -15284355.030 19781223.648 10 0 60922 1800.00000 0 -3098453.312 -13851620.415 21219433.428 10 0 60922 2700.00000 0 -790125.475 -12498091.677 22246555.178 10 0 60922 3600.00000 0 1699720.429 -11271252.224 22842708.330 10 0 60922 4500.00000 0 4314305.690 -10209746.578 22996336.355 10 0 60922 5400.00000 0 6990564.575 -9341835.734 22704428.766 10 0 60922 6300.00000 0 9661523.868 -8684303.573 21972581.433 10 0 60922 7200.00000 0 12258853.257 -8241859.315 20814893.952 10 0 60922 8100.00000 0 14715482.493 -8007060.538 19253705.527 10 0 60922 9000.00000 0 16968178.230 -7960759.924 17319173.584 10 0 60922 9900.00000 0 18959974.703 -8073057.207 15048702.128 10 0 60922 10800.00000 0 20642357.988 -8304716.811 12486229.631 10 0 60922 11700.00000 0 21977113.305 -8608992.118 9681388.897 10 0 60922 12600.00000 0 22937758.333 -8933780.083 6688554.086 10 0 60922 13500.00000 0 23510502.324 -9224015.669 3565792.425 10 0 60922 14400.00000 0 23694690.388 -9424205.074 373740.372 10 0 60922 15300.00000 0 23502713.663 -9480990.356 -2825574.109 10 0 60922 16200.00000 0 22959388.555 -9345636.256 -5969940.112 10 0 60922 17100.00000 0 22100830.671 -8976332.868 -8998179.205 10 0 60922 18000.00000 0 20972870.529 -8340215.253 -11851343.248 10 0 60922 18900.00000 0 19629077.742 -7415012.835 -14473870.426 10 0 60922 19800.00000 0 18128477.047 -6190256.981 -16814676.053 10 0 60922 20700.00000 0 16533052.819 -4667993.865 -18828155.968 10 0 60922 21600.00000 0 14905147.625 -2862970.713 -20475082.280 10 0 60922 22500.00000 0 13304864.873 -802285.865 -21723373.416 10 0 60922 23400.00000 0 11787585.325 1475484.057 -22548723.102 10 0 60922 24300.00000 0 10401702.230 3921644.463 -22935075.882 10 0 60922 25200.00000 0 9186670.350 6479174.538 -22874939.898 10 0 60922 26100.00000 0 8171450.689 9084876.037 -22369530.947 10 0 60922 27000.00000 0 7373415.793 11671789.776 -21428745.246 10 0 60922 27900.00000 0 6797760.783 14171779.149 -20070961.686 10 0 60922 28800.00000 0 6437443.858 16518172.952 -18322677.717 10 0 60922 29700.00000 0 6273657.442 18648357.328 -16217986.323 10 0 60922 30600.00000 0 6276808.686 20506208.827 -13797904.604 10 0 60922 31500.00000 0 6407966.505 22044267.270 -11109567.518 10 0 60922 32400.00000 0 6620712.552 23225558.113 -8205302.962 10 0 60922 33300.00000 0 6863316.578 24024988.892 -5141606.741 10 0 60922 34200.00000 0 7081142.981 24430262.268 -1978038.005 10 0 60922 35100.00000 0 7219185.762 24442268.671 1223942.765 10 0 60922 36000.00000 0 7224623.914 24074943.506 4402170.122 10 0 60922 36900.00000 0 7049288.651 23354596.342 7494980.650 10 0 60922 37800.00000 0 6651937.961 22318741.656 10442406.972 10 0 60922 38700.00000 0 6000242.289 21014481.407 13187335.645 10 0 60922 39600.00000 0 5072397.673 19496508.207 15676606.765 10 0 60922 40500.00000 0 3858298.365 17824813.324 17862034.629 10 0 60922 41400.00000 0 2360219.592 16062195.623 19701330.547 10 0 60922 42300.00000 0 592981.500 14271675.332 21158910.972 10 0 60922 43200.00000 0 -1416413.124 12513920.035 22206576.506 10 0 60922 44100.00000 0 -3629653.171 10844789.272 22824049.713 10 0 60922 45000.00000 0 -5998470.280 9313099.028 22999362.328 10 0 60922 45900.00000 0 -8466411.948 7958697.982 22729085.035 10 0 60922 46800.00000 0 -10970964.682 6810934.469 22018395.701 10 0 60922 47700.00000 0 -13445940.767 5887577.043 20880984.663 10 0 60922 48600.00000 0 -15824031.265 5194232.849 19338798.388 10 0 60922 49500.00000 0 -18039420.848 4724287.594 17421625.612 10 0 60922 50400.00000 0 -20030356.988 4459369.438 15166532.824 10 0 60922 51300.00000 0 -21741567.580 4370317.414 12617158.738 10 0 60922 52200.00000 0 -23126426.734 4418613.977 9822880.094 10 0 60922 53100.00000 0 -24148778.397 4558221.725 6837863.812 10 0 60922 54000.00000 0 -24784341.261 4737747.165 3720022.920 10 0 60922 54900.00000 0 -25021635.503 4902840.253 529895.912 10 0 60922 55800.00000 0 -24862391.660 4998728.106 -2670528.882 10 0 60922 56700.00000 0 -24321423.604 4972775.130 -5819020.931 10 0 60922 57600.00000 0 -23425970.144 4776960.260 -8854323.180 10 0 60922 58500.00000 0 -22214532.297 4370165.168 -11717351.317 10 0 60922 59400.00000 0 -20735254.759 3720175.016 -14352352.406 10 0 60922 60300.00000 0 -19043919.525 2805305.362 -16707999.399 10 0 60922 61200.00000 0 -17201636.190 1615584.605 -18738399.277 10 0 60922 62100.00000 0 -15272326.342 153440.233 -20403994.444 10 0 60922 63000.00000 0 -13320108.148 -1566141.805 -21672339.267 10 0 60922 63900.00000 0 -11406691.393 -3515992.824 -22518736.229 10 0 60922 64800.00000 0 -9588892.601 -5657657.782 -22926719.165 10 0 60922 65700.00000 0 -7916374.569 -7942775.729 -22888374.137 10 0 60922 66600.00000 0 -6429704.952 -10314887.232 -22404491.829 10 0 60922 67500.00000 0 -5158814.861 -12711593.640 -21484548.683 10 0 60922 68400.00000 0 -4121921.271 -15066978.189 -20146517.415 10 0 60922 69300.00000 0 -3324957.376 -17314187.828 -18416510.895 10 0 60922 70200.00000 0 -2761533.382 -19388067.901 -16328266.650 10 0 60922 71100.00000 0 -2413427.781 -21227739.610 -13922482.414 10 0 60922 72000.00000 0 -2251586.670 -22779012.528 -11246016.082 10 0 60922 72900.00000 0 -2237587.235 -23996531.480 -8350966.166 10 0 60922 73800.00000 0 -2325501.899 -24845568.350 -5293651.159 10 0 60922 74700.00000 0 -2464082.869 -25303384.370 -2133508.316 10 0 60922 75600.00000 0 -2599173.373 -25360106.695 1068066.125 10 0 60922 76500.00000 0 -2676242.551 -25019083.547 4248912.243 10 0 60922 77400.00000 0 -2642936.037 -24296704.218 7347313.501 10 0 60922 78300.00000 0 -2451533.914 -23221692.677 10303191.983 10 0 60922 79200.00000 0 -2061211.967 -21833905.504 13059268.598 10 0 60922 80100.00000 0 -1440010.777 -20182685.422 15562166.042 10 0 60922 81000.00000 0 -566429.698 -18324839.939 17763433.751 10 0 60922 81900.00000 0 569421.316 -16322329.853 19620475.880 10 0 60922 82800.00000 0 1965160.529 -14239763.951 21097365.365 10 0 60922 83700.00000 0 3605991.938 -12141803.853 22165529.487 10 0 60922 84600.00000 0 5465088.141 -10090586.150 22804294.809 10 0 60922 85500.00000 0 7504483.519 -8143268.006 23001281.876 10 0 60923 0.00000 0 9676441.639 -6349797.111 22752642.830 10 0 60923 900.00000 0 11925242.686 -4750996.455 22063137.440 10 0 60923 1800.00000 0 14189315.347 -3377044.712 20946046.449 10 0 60923 2700.00000 0 16403630.076 -2246411.207 19422922.993 10 0 60923 3600.00000 0 18502253.001 -1365291.465 17523186.274 10 0 60923 4500.00000 0 20420956.672 -727565.415 15283564.161 10 0 60923 5400.00000 0 22099779.737 -315279.878 12747394.258 10 0 60923 6300.00000 0 23485429.448 -99635.102 9963795.611 10 0 60923 7200.00000 0 24533426.709 -42434.001 6986725.984 10 0 60923 8100.00000 0 25209903.687 -97933.250 3873942.012 10 0 60923 9000.00000 0 25492977.989 -215018.189 685881.777 10 0 60923 9900.00000 0 25373644.796 -339609.560 -2515508.674 10 0 60923 10800.00000 0 24856148.400 -417199.843 -5667981.960 10 0 60923 11700.00000 0 23957816.431 -395411.104 -8710205.202 10 0 60923 12600.00000 0 22708362.714 -226464.980 -11582960.649 10 0 60923 13500.00000 0 21148687.341 130541.155 -14230306.835 10 0 60923 14400.00000 0 19329223.828 707649.737 -16600676.749 10 0 60923 15300.00000 0 17307902.627 1526435.937 -18647890.670 10 0 60923 16200.00000 0 15147816.514 2596847.564 -20332063.232 10 0 60923 17100.00000 0 12914686.014 3916542.608 -21620386.430 10 0 60923 18000.00000 0 10674231.418 5470753.846 -22487772.948 10 0 60923 18900.00000 0 8489561.794 7232687.533 -22917347.080 10 0 60923 19800.00000 0 6418690.372 9164440.525 -22900773.690 10 0 60923 20700.00000 0 4512280.295 11218398.112 -22438418.882 10 0 60923 21600.00000 0 2811714.653 13339054.533 -21539339.487 10 0 60923 22500.00000 0 1347570.842 15465180.204 -20221101.808 10 0 60923 23400.00000 0 138562.143 17532245.015 -18509433.466 10 0 60923 24300.00000 0 -809010.551 19474996.209 -16437715.443 10 0 60923 25200.00000 0 -1501275.507 21230082.851 -14046324.590 10 0 60923 26100.00000 0 -1956276.557 22738616.840 -11381839.824 10 0 60923 27000.00000 0 -2202952.717 23948563.186 -8496127.974 10 0 60923 27900.00000 0 -2279655.989 24816859.482 -5445327.592 10 0 60923 28800.00000 0 -2232271.693 25311176.001 -2288751.134 10 0 60923 29700.00000 0 -2112022.403 25411243.086 912272.528 10 0 60923 30600.00000 0 -1973049.637 25109690.886 4095592.230 10 0 60923 31500.00000 0 -1869876.612 24412367.023 7199441.600 10 0 60923 32400.00000 0 -1854860.024 23338119.829 10163635.415 10 0 60923 33300.00000 0 -1975738.915 21918057.137 12930732.045 10 0 60923 34200.00000 0 -2273384.216 20194312.445 15447139.699 10 0 60923 35100.00000 0 -2779843.823 18218370.622 17664145.623 10 0 60923 36000.00000 0 -3516765.372 16049023.318 19538849.199 10 0 60923 36900.00000 0 -4494262.925 13750039.260 21034981.891 10 0 60923 37800.00000 0 -5710275.237 11387645.961 22123599.336 10 0 60923 38700.00000 0 -7150442.800 9027926.749 22783633.340 10 0 60923 39600.00000 0 -8788509.506 6734240.143 23002294.045 10 0 60923 40500.00000 0 -10587233.152 4564767.426 22775315.232 10 0 60923 41400.00000 0 -12499768.137 2570288.762 22107038.372 10 0 60923 42300.00000 0 -14471464.279 792278.835 21010333.746 10 0 60923 43200.00000 0 -16442008.438 -738600.117 19506359.709 10 0 60923 44100.00000 0 -18347821.403 -2003546.257 17624163.916 10 0 60923 45000.00000 0 -20124611.533 -2996164.179 15400133.103 10 0 60923 45900.00000 0 -21709979.811 -3722486.725 12877300.819 10 0 60923 46800.00000 0 -23045968.248 -4200471.926 10104525.150 10 0 60923 47700.00000 0 -24081445.350 -4458996.233 7135551.230 10 0 60923 48600.00000 0 -24774228.525 -4536386.307 4027975.728 10 0 60923 49500.00000 0 -25092853.829 -4478551.213 842132.755 10 0 60923 50400.00000 0 -25017917.709 -4336793.923 -2360077.399 10 0 60923 51300.00000 0 -24542933.124 -4165394.938 -5516393.810 10 0 60923 52200.00000 0 -23674662.711 -4019070.812 -8565410.895 10 0 60923 53100.00000 0 -22432913.635 -3950416.067 -11447780.334 10 0 60923 54000.00000 0 -20849801.615 -4007437.939 -14107374.720 10 0 60923 54900.00000 0 -18968514.123 -4231289.675 -16492389.319 10 0 60923 55800.00000 0 -16841624.093 -4654299.830 -18556359.547 10 0 60923 56700.00000 0 -14529024.578 -5298382.402 -20259073.608 10 0 60923 57600.00000 0 -12095570.842 -6173896.522 -21567361.920 10 0 60923 58500.00000 0 -9608528.736 -7279005.182 -22455747.565 10 0 60923 59400.00000 0 -7134936.279 -8599561.284 -22906944.904 10 0 60923 60300.00000 0 -4738988.826 -10109526.810 -22912196.633 10 0 60923 61200.00000 0 -2479557.098 -11771908.278 -22471442.806 10 0 60923 62100.00000 0 -407941.480 -13540169.691 -21593318.751 10 0 60923 63000.00000 0 1434044.168 -15360063.993 -20294982.132 10 0 60923 63900.00000 0 3015579.947 -17171806.240 -18601772.856 10 0 60923 64800.00000 0 4317876.813 -18912497.247 -16546712.733 10 0 60923 65700.00000 0 5334701.060 -20518695.878 -14169855.019 10 0 60923 66600.00000 0 6072366.198 -21929031.789 -11517496.910 10 0 60923 67500.00000 0 6549194.589 -23086748.782 -8641270.846 10 0 60923 68400.00000 0 6794473.569 -23942071.887 -5597132.791 10 0 60923 69300.00000 0 6846952.053 -24454298.777 -2444267.870 10 0 60923 70200.00000 0 6752942.953 -24593527.889 756064.810 10 0 60923 71100.00000 0 6564113.173 -24341951.048 3941725.100 10 0 60923 72000.00000 0 6335055.858 -23694656.854 7050898.874 10 0 60923 72900.00000 0 6120748.453 -22659911.787 10023295.508 10 0 60923 73800.00000 0 5974004.533 -21258907.872 12801312.555 10 0 60923 74700.00000 0 5943027.210 -19524988.117 15331145.239 10 0 60923 75600.00000 0 6069167.279 -17502382.538 17563819.890 10 0 60923 76500.00000 0 6384980.316 -15244507.718 19456132.125 10 0 60923 77400.00000 0 6912664.186 -12811900.683 20971472.658 10 0 60923 78300.00000 0 7662942.352 -10269872.615 22080525.902 10 0 60923 79200.00000 0 8634439.862 -7685979.036 22761829.016 10 0 60923 80100.00000 0 9813578.350 -5127410.437 23002181.549 10 0 60923 81000.00000 0 11174995.118 -2658410.178 22796898.498 10 0 60923 81900.00000 0 12682469.721 -337825.253 22149902.275 10 0 60923 82800.00000 0 14290320.628 1783109.982 21073651.776 10 0 60923 83700.00000 0 15945215.143 3662666.572 19588909.473 10 0 60923 84600.00000 0 17588318.571 5270112.798 17724350.217 10 0 60923 85500.00000 0 19157694.337 6586743.945 15516018.216 10 0 60924 0.00000 0 20590855.876 7606407.691 13006641.661 10 0 60924 900.00000 0 21827365.187 8335504.057 10244815.537 10 0 60924 1800.00000 0 22811367.746 8792458.796 7284070.715 10 0 60924 2700.00000 0 23493960.018 9006694.175 4181841.885 10 0 60924 3600.00000 0 23835287.674 9017139.011 998357.018 10 0 60924 4500.00000 0 23806286.147 8870341.402 -2204531.635 10 0 60924 5400.00000 0 23389988.920 8618263.942 -5364551.977 10 0 60924 6300.00000 0 22582346.977 8315855.021 -8420228.071 10 0 60924 7200.00000 0 21392523.357 8018499.658 -11312083.324 10 0 60924 8100.00000 0 19842648.968 7779458.662 -13983806.553 10 0 60924 9000.00000 0 17967048.565 7647405.687 -16383357.286 10 0 60924 9900.00000 0 15810968.428 7664167.657 -18463987.876 10 0 60924 10800.00000 0 13428858.346 7862765.482 -20185161.699 10 0 60924 11700.00000 0 10882279.469 8265839.201 -21513349.022 10 0 60924 12600.00000 0 8237525.441 8884525.248 -22422684.566 10 0 60924 13500.00000 0 5563056.182 9717834.296 -22895473.794 10 0 60924 14400.00000 0 2926851.569 10752556.746 -22922538.040 10 0 60924 15300.00000 0 393795.439 11963700.489 -22503391.829 10 0 60924 16200.00000 0 -1976801.096 13315442.913 -21646249.149 10 0 60924 17100.00000 0 -4133434.104 14762557.343 -20367858.809 10 0 60924 18000.00000 0 -6034306.473 16252253.894 -18693172.354 10 0 60924 18900.00000 0 -7648814.425 17726357.208 -16654851.356 10 0 60924 19800.00000 0 -8958560.115 19123729.257 -14292623.992 10 0 60924 20700.00000 0 -9957849.564 20382834.967 -11652503.898 10 0 60924 21600.00000 0 -10653656.950 21444342.450 -8785886.946 10 0 60924 22500.00000 0 -11065058.828 22253648.150 -5748544.092 10 0 60924 23400.00000 0 -11222164.158 22763220.487 -2599530.478 10 0 60924 24300.00000 0 -11164587.272 22934663.336 599967.344 10 0 60924 25200.00000 0 -10939529.991 22740412.669 3787823.139 10 0 60924 26100.00000 0 -10599555.429 22164995.274 6902177.971 10 0 60924 27000.00000 0 -10200148.653 21205797.070 9882638.757 10 0 60924 27900.00000 0 -9797168.004 19873309.177 12671445.115 10 0 60924 28800.00000 0 -9444295.014 18190841.866 15214582.065 10 0 60924 29700.00000 0 -9190590.511 16193718.621 17462817.635 10 0 60924 30600.00000 0 -9078259.587 13927984.063 19372646.091 10 0 60924 31500.00000 0 -9140719.062 11448679.421 20907119.538 10 0 60924 32400.00000 0 -9401048.170 8817756.798 22036553.001 10 0 60924 33300.00000 0 -9870887.102 6101718.058 22739090.462 10 0 60924 34200.00000 0 -10549829.424 3369075.172 23001121.914 10 0 60924 35100.00000 0 -11425333.942 687735.952 22817544.137 10 0 60924 36000.00000 0 -12473160.216 -1877578.093 22191860.540 10 0 60924 36900.00000 0 -13658310.345 -4267776.290 21136118.130 10 0 60924 37800.00000 0 -14936438.791 -6431605.908 19670682.434 10 0 60924 38700.00000 0 -16255672.631 -8327531.600 17823853.882 10 0 60924 39600.00000 0 -17558767.417 -9925210.112 15631332.020 10 0 60924 40500.00000 0 -18785509.681 -11206499.673 13135536.615 10 0 60924 41400.00000 0 -19875266.381 -12165962.457 10384797.486 10 0 60924 42300.00000 0 -20769574.953 -12810839.313 7432427.555 10 0 60924 43200.00000 0 -21414665.317 -13160497.899 4335696.086 10 0 60924 44100.00000 0 -21763807.475 -13245377.350 1154721.361 10 0 60924 45000.00000 0 -21779385.042 -13105473.869 -2048695.988 10 0 60924 45900.00000 0 -21434606.150 -12788431.170 -5212276.208 10 0 60924 46800.00000 0 -20714778.138 -12347316.673 -8274476.449 10 0 60924 47700.00000 0 -19618090.594 -11838177.911 -11175695.112 10 0 60924 48600.00000 0 -18155872.067 -11317483.239 -13859440.281 10 0 60924 49500.00000 0 -16352308.017 -10839556.006 -16273438.501 10 0 60924 50400.00000 0 -14243630.445 -10454111.815 -18370661.405 10 0 60924 51300.00000 0 -11876812.115 -10204004.120 -20110249.407 10 0 60924 52200.00000 0 -9307819.232 -10123274.545 -21458313.890 10 0 60924 53100.00000 0 -6599495.230 -10235591.296 -22388601.839 10 0 60924 54000.00000 0 -3819163.804 -10553142.419 -22883009.765 10 0 60924 54900.00000 0 -1036051.105 -11076031.217 -22931936.921 10 0 60924 55800.00000 0 1681365.428 -11792199.784 -22534470.975 10 0 60924 56700.00000 0 4267971.194 -12677884.056 -21698402.738 10 0 60924 57600.00000 0 6664482.862 -13698581.226 -20440069.885 10 0 60924 58500.00000 0 8819668.590 -14810488.623 -18784032.999 10 0 60924 59400.00000 0 10692228.236 -15962353.105 -16762590.552 10 0 60924 60300.00000 0 12252256.082 -17097652.669 -14415142.601 10 0 60924 61200.00000 0 13482226.313 -18157017.858 -11787416.038 10 0 60924 62100.00000 0 14377461.646 -19080790.434 -8930566.918 10 0 60924 63000.00000 0 14946067.391 -19811611.028 -5900177.894 10 0 60924 63900.00000 0 15208335.691 -20296926.281 -2755170.886 10 0 60924 64800.00000 0 15195647.095 -20491309.607 443343.253 10 0 60924 65700.00000 0 14948917.653 -20358497.632 3633255.153 10 0 60924 66600.00000 0 14516658.719 -19873056.636 6752663.769 10 0 60924 67500.00000 0 13952732.714 -19021609.013 9741075.939 10 0 60924 68400.00000 0 13313900.492 -17803568.452 12540575.344 10 0 60924 69300.00000 0 12657264.361 -16231353.218 15096938.401 10 0 60924 70200.00000 0 12037714.643 -14330068.722 17360676.009 10 0 60924 71100.00000 0 11505487.092 -12136672.635 19287981.823 10 0 60924 72000.00000 0 11103933.410 -9698657.091 20841569.679 10 0 60924 72900.00000 0 10867597.875 -7072302.304 21991385.138 10 0 60924 73800.00000 0 10820680.104 -4320573.290 22715178.569 10 0 60924 74700.00000 0 10975947.833 -1510745.842 22998929.645 10 0 60924 75600.00000 0 11334144.907 1288141.261 22837115.870 10 0 60924 76500.00000 0 11883919.265 4007903.828 22232820.339 10 0 60924 77400.00000 0 12602274.260 6583792.830 21197676.677 10 0 60924 78300.00000 0 13455525.124 8956932.616 19751651.808 10 0 60924 79200.00000 0 14400721.514 11076517.100 17922669.977 10 0 60924 80100.00000 0 15387477.647 12901673.864 15746084.202 10 0 60924 81000.00000 0 16360134.477 14402919.518 13264004.124 10 0 60924 81900.00000 0 17260164.141 15563146.210 10524491.926 10 0 60924 82800.00000 0 18028716.395 16378098.321 7580640.693 10 0 60924 83700.00000 0 18609200.239 16856319.403 4489552.090 10 0 60924 84600.00000 0 18949791.871 17018571.510 1311232.473 10 0 60924 85500.00000 0 19005762.666 16896751.119 -1892571.407 99